Weather History for Brooksville, FL

Change the Weather History Date:

Monday, February 25, 2013

  Actual Average Record
Temperature  
Mean Temperature 75 °F -  
Max Temperature 84 °F 72 °F 84 °F (2001)
Min Temperature 66 °F 48 °F 37 °F (1998)
Cooling Degree Days 10    
Growing Degree Days 25 (Base 50)    
Moisture  
Dew Point 66 °F    
Average Humidity 85    
Maximum Humidity 100    
Minimum Humidity 44    
Precipitation  
Precipitation 0.00 in - - ()
Sea Level Pressure  
Sea Level Pressure 29.87 in    
Wind  
Wind Speed 7 mph (SSE)    
Max Wind Speed 16 mph    
Max Gust Speed -    
Visibility 6 miles    
Events      
Averages and records for this station are not official NWS values.
T = Trace of Precipitation, MM = Missing Value Source: NWS Daily Summary

Daily Weather History Graph

Daily Weather History Graph

Search for Another Location

Airport:

Trip Planner

Search our weather history database for the weather conditions in past years. The results will help you decide how hot, cold, wet, or windy it might be!

Date:

Astronomy

Feb. 25, 2013 Rise Set
Actual Time 6:58 AM EST 6:27 PM EST
Civil Twilight 6:34 AM EST 6:51 PM EST
Nautical Twilight 6:07 AM EST 7:18 PM EST
Astronomical Twilight 5:40 AM EST 7:45 PM EST
Moon 6:34 PM EST (2/25) 6:31 AM EST (2/25)
Length of Visible Light 12h 16m
Length of Day
11h 28m
Full, 100% of the Moon is Illuminated
Feb 25
Full
Feb 25
Full
Mar 4
Last Quarter
Mar 11
New
Mar 19
First Quarter

Hourly Weather History & Observations

Time (EST) Temp. Heat Index Dew Point Humidity Pressure Visibility Wind Dir Wind Speed Gust Speed Precip Events Conditions
12:53 AM 69.1 °F - 68.0 °F 96% 29.94 in 5.0 mi East 4.6 mph - N/A   Overcast
1:53 AM 68.0 °F - 66.9 °F 96% 29.91 in 7.0 mi ESE 5.8 mph - N/A   Overcast
2:08 AM 68.0 °F - 66.2 °F 94% 29.91 in 10.0 mi ESE 6.9 mph - N/A   Mostly Cloudy
2:53 AM 66.9 °F - 64.9 °F 93% 29.88 in 10.0 mi ESE 6.9 mph - N/A   Overcast
3:53 AM 66.9 °F - 64.9 °F 93% 29.87 in 8.0 mi SSE 5.8 mph - N/A   Overcast
4:35 AM 66.2 °F - 66.2 °F 100% 29.87 in 2.5 mi SSE 5.8 mph - N/A   Overcast
4:47 AM 66.2 °F - 66.2 °F 100% 29.87 in 1.5 mi SSE 4.6 mph - N/A   Overcast
4:53 AM 66.9 °F - 66.0 °F 97% 29.87 in 1.2 mi SSE 4.6 mph - N/A   Overcast
5:18 AM 66.2 °F - 66.2 °F 100% 29.86 in 0.8 mi SSE 6.9 mph - N/A   Mist
5:34 AM 66.2 °F - 66.2 °F 100% 29.86 in 1.0 mi SSE 8.1 mph - N/A   Mist
5:53 AM 66.9 °F - 66.0 °F 97% 29.86 in 1.5 mi SE 4.6 mph - N/A   Overcast
5:59 AM 66.2 °F - 66.2 °F 100% 29.87 in 2.0 mi ESE 5.8 mph - N/A   Overcast
6:53 AM 66.9 °F - 66.0 °F 97% 29.89 in 3.0 mi SE 4.6 mph - N/A   Overcast
7:05 AM 66.2 °F - 66.2 °F 100% 29.89 in 2.5 mi ESE 5.8 mph - N/A   Overcast
7:13 AM 66.2 °F - 66.2 °F 100% 29.89 in 1.5 mi SE 5.8 mph - N/A   Overcast
7:31 AM 66.2 °F - 66.2 °F 100% 29.89 in 0.5 mi SE 4.6 mph - N/A   Overcast
7:46 AM 66.2 °F - 66.2 °F 100% 29.90 in 1.8 mi SE 6.9 mph - N/A   Overcast
7:53 AM 66.9 °F - 66.0 °F 97% 29.89 in 2.5 mi SE 5.8 mph - N/A   Overcast
8:05 AM 66.2 °F - 66.2 °F 100% 29.91 in 3.0 mi SE 4.6 mph - N/A   Overcast
8:53 AM 69.1 °F - 66.9 °F 93% 29.90 in 4.0 mi SE 8.1 mph - N/A   Overcast
9:41 AM 71.6 °F - 68.0 °F 88% 29.91 in 8.0 mi SE 6.9 mph - N/A   Overcast
9:53 AM 73.0 °F - 68.0 °F 84% 29.90 in 10.0 mi SE 6.9 mph - N/A   Overcast
10:02 AM 73.4 °F - 68.0 °F 83% 29.90 in 10.0 mi SSE 9.2 mph - N/A   Mostly Cloudy
10:53 AM 77.0 °F - 66.9 °F 71% 29.89 in 10.0 mi South 8.1 mph - N/A   Mostly Cloudy
11:53 AM 81.0 °F 82.5 °F 64.0 °F 56% 29.88 in 10.0 mi South 16.1 mph - N/A   Clear
12:53 PM 81.0 °F 82.2 °F 63.0 °F 54% 29.85 in 10.0 mi South 11.5 mph - N/A   Clear
1:53 PM 84.0 °F 84.0 °F 60.1 °F 44% 29.82 in 10.0 mi SSW 11.5 mph - N/A   Mostly Cloudy
2:53 PM 84.0 °F 84.0 °F 60.1 °F 44% 29.82 in 10.0 mi SSW 12.7 mph - N/A   Mostly Cloudy
3:53 PM 84.0 °F 84.5 °F 62.1 °F 47% 29.81 in 10.0 mi South 13.8 mph - N/A   Partly Cloudy
4:53 PM 81.0 °F 82.7 °F 64.9 °F 58% 29.81 in 10.0 mi SSW 11.5 mph - N/A   Mostly Cloudy
5:53 PM 79.0 °F - 66.0 °F 64% 29.80 in 10.0 mi SSW 11.5 mph - N/A   Clear
6:53 PM 77.0 °F - 66.9 °F 71% 29.81 in 10.0 mi SSW 6.9 mph - N/A   Clear
7:53 PM 73.9 °F - 66.9 °F 79% 29.82 in 10.0 mi South 4.6 mph - N/A   Clear
8:53 PM 72.0 °F - 66.9 °F 84% 29.81 in 10.0 mi South 4.6 mph - N/A   Clear
10:53 PM 71.1 °F - 68.0 °F 90% 29.81 in 10.0 mi Calm Calm - N/A   Overcast
11:53 PM 70.0 °F - 66.9 °F 90% 29.80 in 10.0 mi ESE 4.6 mph - N/A   Mostly Cloudy